This demonstration page uses our WeatherBlox Daily Observations layout. Learn more.

Left ArrowRight Arrow

34.16533, -84.80231

Hourly Observations for September 16, 2017

Temp ( °F °C ) Dew Point ( °F °C ) Humidity (%) Winds ( mph kmh ) Pressure ( in mb ) Visibility ( mi km ) Precip ( " mm )
12:53 am 00:53 Clear with Mist and Fog 64 17.8 64 17.8 100 100 Calm 30.08 1019 6 10 0.00 0.00
1:53 am 01:53 Clear 63 17.2 63 17.2 100 100 Calm 30.07 1018 7 11 0.00 0.00
2:53 am 02:53 Clear with Mist and Fog 64 17.8 64 17.8 100 100 Calm 30.06 1018 6 10 0.00 0.00
3:53 am 03:53 Clear with Mist and Fog 63 17.2 63 17.2 100 100 Calm 30.07 1018 6 10 0.00 0.00
4:53 am 04:53 Clear with Mist and Fog 62 16.7 62 16.7 100 100 Calm 30.07 1018 6 10 0.00 0.00
5:30 am 05:30 Mostly Clear 62 16.7 62 16.7 100 100 Calm 30.09 1019 7 11 0.00 0.00
5:53 am 05:53 Clear 63 17.2 63 17.2 100 100 ESE 5 7 30.08 1019 9 14 0.00 0.00
6:53 am 06:53 Clear 63 17.2 63 17.2 100 100 Calm 30.11 1020 7 11 0.00 0.00
7:53 am 07:53 Sunny 63 17.2 63 17.2 100 100 ESE 3 6 30.13 1020 8 13 0.00 0.00
8:53 am 08:53 Sunny 68 20 66 18.9 93 93 Calm 30.13 1020 10 16 0.00 0.00
9:53 am 09:53 Sunny 73 22.8 68 20 84 84 VRB 5 7 30.14 1021 10 16 0.00 0.00
10:53 am 10:53 Sunny 77 25 67 19.4 71 71 E 5 7 30.15 1021 10 16 0.00 0.00
11:53 am 11:53 Sunny 80 26.7 68 20 67 67 VRB 5 7 30.14 1021 10 16 0.00 0.00
12:53 pm 12:53 Sunny 83 28.3 67 19.4 59 59 VRB 5 7 30.12 1020 10 16 0.00 0.00
1:53 pm 13:53 Sunny 83 28.3 65 18.3 55 55 Calm 30.11 1020 10 16 0.00 0.00
2:53 pm 14:53 Mostly Cloudy 85 29.4 64 17.8 50 50 VRB 3 6 30.08 1019 10 16 0.00 0.00
3:53 pm 15:53 Mostly Sunny 85 29.4 65 18.3 51 51 Calm 30.06 1018 10 16 0.00 0.00
4:53 pm 16:53 Sunny 83 28.3 66 18.9 57 57 Calm 30.05 1018 10 16 0.00 0.00
5:53 pm 17:53 Mostly Cloudy 83 28.3 67 19.4 59 59 ENE 3 6 30.04 1017 10 16 0.00 0.00
6:53 pm 18:53 Sunny 77 25 72 22.2 85 85 Calm 30.05 1018 10 16 0.00 0.00
7:53 pm 19:53 Cloudy 74 23.3 72 22.2 94 94 Calm 30.05 1018 10 16 0.00 0.00
8:53 pm 20:53 Cloudy 72 22.2 72 22.2 100 100 Calm 30.06 1018 10 16 0.00 0.00
9:53 pm 21:53 Cloudy 72 22.2 72 22.2 100 100 Calm 30.07 1018 10 16 0.00 0.00
10:53 pm 22:53 Partly Cloudy 70 21.1 70 21.1 100 100 Calm 30.07 1018 8 13 0.00 0.00
11:53 pm 23:53 Partly Cloudy 70 21.1 70 21.1 100 100 Calm 30.07 1018 8 13 0.00 0.00

Powered by AerisWeather